Location: Faicchio
(41.2833°N, 14.4833°E)
Time: 06:27:02
(UTC+00:00)

Cosmos 1354 Rocket - Pass Details

Date: 15 June 2025
Orbit: 761 x 778 km, 74.0° (Epoch: 16 July)

Event Time Altitude Azimuth Distance (km) Brightness Sun altitude
Exits shadow 02:07:11 13° 191° (SSW) 2,136 5.8 -12.5°
Maximum altitude 02:11:58 76° 107° (ESE) 799 4.1 -11.9°
Drops below altitude 10° 02:17:13 10° 23° (NNE) 2,318 7.7 -11.2°
Sets 02:19:36 0° 22° (NNE) 3,246 8.6 -10.9°
